Tracking 32938 objects as of 13-Jan-2026
HD Live streaming from Space Station
objects crossing your sky now

STARLINK-36450

Track STARLINK-36450 now!
10-day predictions
STARLINK-36450 is classified as:


NORAD ID: 67317
Int'l Code: 2026-002N
Perigee: 296.6 km
Apogee: 299.0 km
Inclination: 43.0 °
Period: 90.3 minutes
Semi major axis: 6668 km
RCS: Unknown
Launch date: January 4, 2026
Source: United States (US)
Launch site: AIR FORCE EASTERN TEST RANGE (AFETR)
Your satellite tracking list
Your tracking list is empty




NASA's NSSDC Master Catalog

Two Line Element Set (TLE):
1 67317U 26002N   26013.16672453 -.01408792  57765-3 -36642-2 0  9999
2 67317  42.9984 287.1775 0001795 270.6720  40.0998 15.94157052  2657
Source of the keplerian elements: AFSPC